Regional Weather Roundup
Issued by NWS

Home | Current Version | Previous Version | Text Only | Print | Product List | Glossary On
Versions: 1 2 3 4 5 6 7 8 9 10 11 12 13 14 15 16 17 18 19 20 21 22 23 24 25 26 27 28 29 30 31 32 33 34 35 36 37 38 39 40 41 42 43 44 45 46 47 48 49 50
000
ASHW40 PHFO 210443
RWRHI

WEATHER ROUNDUP FOR HAWAII
NATIONAL WEATHER SERVICE HONOLULU HI
600 PM HST SAT DEC 20 2014

THIS IS AN AUTOMATED REPORT THAT HAS NOT BEEN QUALITY CONTROLLED.

NOTE..."FAIR" INDICATES FEW OR NO CLOUDS BELOW 12,000 FEET WITH NO
SIGNIFICANT WEATHER AND/OR OBSTRUCTIONS TO VISIBILITY.

* - THESE SITES REPORT LIMITED FIELDS

HIZ001>004-210500-
KAUAI-NIIHAU-

CITY           SKY/WX    TMP DP  RH WIND       PRES   REMARKS
LIHUE APT      NOT AVBL
PORT ALLEN*      N/A     77 N/A N/A SE9         N/A
POIPU*           N/A     77 N/A N/A NE3         N/A
PRINCEVILLE*     N/A     77 N/A N/A MISG        N/A
KOKOLE POINT*    N/A     77 N/A N/A MISG        N/A
MOLOAA DAIRY*  NOT AVBL
WAIMEA HTS*      N/A     73  59  60 SW1         N/A
PUU OPAE*        N/A     64  61  88 CALM        N/A
PUU LUA*       NOT AVBL
MAKAHA RIDGE*  NOT AVBL
$$

HIZ005>011-210500-
OAHU-

CITY           SKY/WX    TMP DP  RH WIND       PRES   REMARKS
HONOLULU       MOCLDY    78  66  66 CALM      29.97S
KALAELOA       PTCLDY    76  66  71 SW3       29.99S
KANEOHE MCB    MOCLDY    77  68  73 E7        29.99R
WHEELER FIELD  FAIR      73  64  74 SW2       30.00R
BELLOWS*         N/A    N/A N/A N/A N1          N/A
KAHUKU*          N/A    N/A N/A N/A E6G12       N/A
WHEELER*       NOT AVBL
WAIANAE HARBOR NOT AVBL
DILLINGHAM*      N/A     73  63  68 CALM        N/A
KAHUKU TRN*      N/A     73  70  88 E3G10       N/A
KAWAILOA*        N/A     72  64  78 E3G12       N/A
KII*             N/A     75  70  83 E12G18      N/A
MAKUA RANGE*     N/A     77  64  65 S1G9        N/A
OAHU FOREST NW   N/A     64 -11   4 CALM        N/A
SCHOFIELD BRK*   N/A     73  70  88 MISG        N/A
SCHOFIELD S*   NOT AVBL
WAIANAE VLY*     N/A     70  64  83 N3          N/A
KUAOKALA*        N/A     72  63  73 CALM        N/A
HONOULIUULI*   NOT AVBL
MOKUOLOE IS*     N/A    N/A N/A N/A MISG        N/A
PALEHUA*         N/A     77  64  65 CALM        N/A
WAIAWA PHB*    NOT AVBL
$$

HIZ012>013-210500-
MOLOKAI-

CITY           SKY/WX    TMP DP  RH WIND       PRES   REMARKS
MOLOKAI AIRPT  PTCLDY    72  66  81 E7        30.00R
KALAUPAPA      NOT AVBL
MAKAPULAPAI*     N/A     73  66  78 SE5G13      N/A
MOLOKAI 1*       N/A    N/A N/A N/A VRB1        N/A
PUU ALII*        N/A     58  56  95 SE1G7       N/A
$$

HIZ016-210500-
KAHOOLAWE-

CITY           SKY/WX    TMP DP  RH WIND       PRES   REMARKS
KAHOOLAWE*       N/A     70 N/A N/A NE7         N/A
HAKIOAWA*        N/A     71  61  70 MISG      30.42R
HONOKANAIA*      N/A     78  60  52 NE12G22   29.99S
KANELOA*         N/A     75  64  69 E16G29      N/A
KEALIALALO*    NOT AVBL
LUA MAKIKA*    NOT AVBL
$$

HIZ014>015-210500-
LANAI-

CITY           SKY/WX    TMP DP  RH WIND       PRES   REMARKS
LANAI CITY     FAIR      71  65  81 NW7       30.04S
LANAI 1*         N/A     68  66  94 VRB3        N/A
$$

HIZ017>028-210500-
MAUI-

CITY           SKY/WX    TMP DP  RH WIND       PRES   REMARKS
KAHULUI        PTCLDY    77  65  66 E7        29.98R
KAPALUA-W MAUI PTCLDY    77  64  65 CALM      29.98
HANA AIRPORT   CLOUDY    75  68  78 E3        30.04R
HANA*            N/A     77 N/A N/A E5G12       N/A
HALEAKALA SUMM   N/A     46 -11   8 E25         N/A
MAALAEA BAY*   NOT AVBL
HALEAKALA*     NOT AVBL
KAUPO GAP*       N/A     63  41  45 SE6G22      N/A
KULA 1*          N/A    N/A N/A N/A CALM        N/A
$$

HIZ023>026-210500-
BIG ISLAND OF HAWAII COAST AND LOWER SLOPES-

CITY           SKY/WX    TMP DP  RH WIND       PRES   REMARKS
KAILUA KONA    PTCLDY    79  66  64 S7        29.95S
HILO           MOCLDY    74  67  78 S7        30.01R
HONOKAA*       NOT AVBL
KAWAIHAE MWT*    N/A     79 N/A N/A S3          N/A
KAWAIHAE*        N/A     77 N/A N/A S2          N/A
SOUTH POINT*     N/A     72 N/A N/A NE13G20     N/A
UPOLU AIRPORT*   N/A    N/A N/A N/A E15G23      N/A
KAMUELA*       CLOUDY    64  57  77 CALM      30.08R
HAKALAU*         N/A     48  14  25 SW6         N/A
KALOKO-HONOKO*   N/A     75  64  69 SE3       29.95R
PALI 2*          N/A     63  63 100 S5G16       N/A
KEALAKOMO*       N/A     81  72  74 NE9G22      N/A
KAUPULEHU*       N/A     72  59  64 W8          N/A
KAPAPALA*        N/A     67  63  87 E2G16       N/A
LOWER KAHUKU*    N/A    N/A N/A N/A E3G14       N/A
PUHE CS*       NOT AVBL
PUHO CS*         N/A     77  64  63 NW3G10      N/A
PTA KEAMUKU*     N/A     61  55  82 CALM        N/A
WAIKOLOA*        N/A     73  57  56 NW3         N/A
$$

HIZ027>028-210500-
BIG ISLAND OF HAWAII INTERIOR AND SUMMMITS-

CITY           SKY/WX    TMP DP  RH WIND       PRES   REMARKS
BRADSHAW FIELD PTCLDY    57  34  41 SE6G20    30.27R
MK VISITOR CEN NOT AVBL
MAUNA KEA*       N/A     34 -11  14 S31         N/A  WCI  20
MAUNA LOA*       N/A     46 -20   5 MISG        N/A
MAUNA LOA 1*   NOT AVBL
PTA KIPUKA*      N/A     55  50  82 NE1         N/A
PTA RANGE 17*    N/A     57  45  62 SW7G25      N/A
PTA WEST*        N/A     59  55  88 NW3G9       N/A
NENE CABIN*      N/A    N/A N/A N/A E10G17      N/A
AHUMOA*          N/A     51  37  59 NE5G10      N/A
PTA PORTABLE*  NOT AVBL
PUU MALI*      NOT AVBL
$$

HIC003-210500-
NORTHWEST ISLANDS-

CITY           SKY/WX    TMP DP  RH WIND       PRES   REMARKS
MIDWAY ISLAND  MOSUNNY   63  46  55 N14G22    30.20R
MIDWAY NOS*    NOT AVBL
FRENCH FRIGATE NOT AVBL
$$

PHZ110>124-180-210500-
BUOY REPORTS

STATION/POSITION TIME  TEMP    WIND        PRES    WAVE   SWELL
                       AIR SEA DIR/SP/G            HT/PER HT/DIR
                 (UTC) (F)     (DEG/KT/KT) (MB)    (FT/S) (FT/D)
BUOY 51001       NOT AVBL
BUOY 51101       0400   77 77  190/ 12/ 14 1015.1R   6/ 8   7/120
BUOY 51100       0400   75 75  140/ 12/ 16 1017.5
BUOY 51003       0400   78 79   80/ 16/ 17 1014.3R   9/ 9   8
BUOY 51004       0350   77 78   80/ 19/ 21 1014.0R  12/ 9  10/ 90
BARBERS PT BUOY  NOT AVBL
WAIMEA BAY BUOY  0400      78                N/A     5/13
KAILUA BAY BUOY  0400      78                N/A     6/12   2/350
LANAI BUOY       0400      78                N/A     3/13   2/290
BARBERS PT 2     0400      78                N/A     5/12   3/280
PAUWELA MAUI     0400      77                N/A     7/12   3/340
HILO             0400      78                N/A     9/10   3/350
KANEOHE BAY BUOY 0400      77                N/A     6/12   3/360
HANALEI KAUAI    NOT AVBL
KAHULUI HARBOR   0400   77 76   70/  5/  8 1014.9R
HONOLULU HARBOR  0400   77      70/  1/  3 1015.8R
KILO NALU        NOT AVBL
HILO HARBOR      0400   75     200/  7/  9 1015.7R
MOKUOLOE         0400   76 75  100/  5/  7 1015.8R
NAWILIWILI       0400      77                N/A
WHOTS BUOY       NOT AVBL
BUOY 51028       NOT AVBL
$$

......................KEY........................................
  SKY/WX - SKY CONDITIONS/PRESENT WEATHER
  TMP    - TEMPERATURE IN FAHRENHEIT
  DWPT   - DEWPOINT IN FAHRENHEIT
  RH     - RELATIVE HUMIDITY IN PERCENT
  WIND   - DIRECTION AND SPEED /MPH FOR ISLANDS...KTS FOR BUOYS/
  PRES   - MEAN SEA LEVEL PRESSURE IN INCHES OF HG
  VSB    - VISIBILITY IN MILES
  HX     - HEAT INDEX
  WCI    - WIND CHILL INDEX
  VRB    - VARIABLE WIND DIRECTION
  N/A    - NOT AVAILABLE



USA.gov is the U.S. government's official web portal to all federal, state and local government web resources and services.